Location: DARK SKY Beskydy - Park tmavé oblohy, www.darkskybeskydy.cz
(49.4926°N, 18.5016°E)
Time: 14:31:23
(UTC+01:00)

Vanguard 1 - Pass Details

Date: 19 November 2025
Orbit: 650 x 3821 km, 34.2° (Epoch: 07 December)

Event Time Altitude Azimuth Distance (km) Brightness Sun altitude
Rises 21:51:04 0° 279° (W) 7,909 15.1 -54.1°
Reaches altitude 10° 21:57:57 10° 269° (W) 6,925 14.6 -54.8°
Enters shadow 22:13:15 25° 228° (SW) 5,284 13.6 -56.3°
